Home   Weather   Jersey City   Past weeks

Flag for USA Past Weather in Jersey City, New Jersey, USA — Yesterday and Last 2 Weeks

Now
71 °F

Scattered clouds.


Feels Like: 68 °F
Forecast: 71 / 84 °F
Wind: No wind

Location: Newark International Airport

Current Time: Jul 28, 2017 at 7:13:43 am

Latest Report: Jul 28, 2017 at 5:51 am


Visibility: 10 mi

Pressure: 29.85 "Hg

Humidity: 90%

Dew Point: 68 °F

Location of Jersey CityLocation

Past Weather in Jersey City — Graph

°F

Jersey City Temperature Yesterday

Maximum temperature yesterday: 79 °F (at 12:51 pm)
Minimum temperature yesterday: 65 °F (at 4:51 am)
Average temperature yesterday: 73 °F

High & Low Weather Summary for the Past Weeks

 TemperatureHumidityPressure
High97 °F (Jul 20, 3:51 pm)100% (Jul 14, 4:51 pm)30.25 "Hg (Jul 14, 4:51 pm)
Low62 °F (Jul 25, 4:51 am)29% (Jul 20, 3:51 pm)29.73 "Hg (Jul 23, 2:51 am)
Average77 °F71%29.96 "Hg
* Reported Jul 13 5:51 am — Jul 28 5:51 am, Jersey City. Weather by CustomWeather, © 2017

Note: Actual official high and low records may vary slightly from our data, if they occured in-between our weather recording intervals... More about our weather records

Advertising

Jersey City Weather History for the Previous 24 Hours

Scroll right to see more
 ConditionsComfort  
Time TempWeatherWind HumidityBarometerVisibility
5:51 am
Fri, Jul 28
71 °FScattered clouds.No wind90%29.85 "Hg10 mi
4:51 am72 °FPassing clouds.No wind91%29.84 "Hg10 mi
3:51 am73 °FPartly cloudy.No wind88%29.84 "Hg10 mi
3:30 am73 °FPartly cloudy.No wind88%29.84 "Hg10 mi
3:06 am73 °FMostly cloudy.No wind88%29.85 "Hg10 mi
1:51 am74 °FPassing clouds.3 mph85%29.85 "Hg10 mi
12:51 am74 °FPartly cloudy.No wind85%29.86 "Hg10 mi
11:51 pm
Thu, Jul 27
75 °FMostly cloudy.6 mph82%29.87 "Hg10 mi
11:10 pm76 °FMostly cloudy.9 mph82%29.87 "Hg10 mi
10:51 pm76 °FOvercast.9 mph80%29.88 "Hg10 mi
9:51 pm77 °FPartly cloudy.No wind74%29.88 "Hg10 mi
9:21 pm77 °FPartly cloudy.No wind74%29.89 "Hg10 mi
8:51 pm77 °FPassing clouds.No wind74%29.88 "Hg10 mi
7:51 pm77 °FMostly cloudy.3 mph74%29.88 "Hg10 mi
6:51 pm77 °FMostly cloudy.5 mph74%29.89 "Hg10 mi
5:51 pm77 °FMostly cloudy.5 mph74%29.89 "Hg10 mi
4:51 pm78 °FMostly cloudy.6 mph74%29.90 "Hg10 mi
3:51 pm77 °FMostly cloudy.3 mph74%29.92 "Hg10 mi
2:51 pm77 °FLight rain. Mostly cloudy.3 mph74%29.93 "Hg10 mi
1:51 pm78 °FMostly cloudy.7 mph69%29.94 "Hg10 mi
12:51 pm79 °FMostly cloudy.8 mph67%29.96 "Hg10 mi
11:51 am77 °FPartly sunny.12 mph69%29.99 "Hg10 mi
10:51 am74 °FMostly cloudy.7 mph74%30.01 "Hg10 mi
10:03 am73 °FMostly cloudy.9 mph74%30.02 "Hg10 mi
9:51 am73 °FCloudy.6 mph74%30.02 "Hg10 mi
8:51 am73 °FMostly cloudy.9 mph69%30.04 "Hg10 mi
7:51 am68 °FCloudy.8 mph76%30.05 "Hg10 mi
Weather by CustomWeather, © 2017

See weather overviewHow to use our weather pages